SL-8 DEB *, 6252

Orbit data source: Space-Track

SL-8 DEB *, 6252 is space debris in LEO originally from a launch on Mon, 15 Mar 1965 UTC launched from the Tyuratam Missile And Space Complex (TTMTR). Debris objects in space refer to the collection of defunct objects orbiting the Earth. Examples of debris include non-operational satellites, rocket bodies, and fragments generated from explosions, collisions, or faulty payload assembly.

Loading next visibility...
Identifier
6252, 1965-020FD
Orbit
LEO
Country
Flag of CISCIS
Related business
Manufacturer
Unknown
Mission
Spacecraft
Bus & Motor
Unknown
Mass
Unknown
Launch date (UTC)
1965-03-15 (61 years ago)
Launch vehicle
Unknown
Launch site
Tyuratam Missile And Space Complex (TTMTR)
Object type
Payload
Rocket body
Debris
Shape & HBR
Unknown shape, 0.1 m
Radar Cross Section
Medium (>0.1 m² and <1 m²)

Expand to show TLE details & history
Last TLE update: 2 days ago

TLE from 2 days ago
0 SL-8 DEB *
1 06252U 65020FD  26173.35703016 -.00000042  00000-0  37618-3 0  9997
2 06252  56.0411  42.1952 0194070 281.9843 263.4114 12.30079656665718
Epoch: 2026-06-22T08:34Z
TLE epoch observation values (Epoch: 2026-06-22T08:34:07.405Z)
Latitude
-2.73686°
Longitude
-175.04381°
Altitude
1,570.966 km
Speed
7.074 km/s
True Right ascension
14h 56m 07s
True Declination
-2° 43' 20"
Sunlit
Object was in full shadow at epoch
Visualization orbit readout
Latitude
Unknown
Longitude
Unknown
Altitude
Unknown
Speed
Unknown
Apparent Right ascension
Unknown
Apparent Declination
Unknown
Sunlit
N/A
Visualization observer readout
Local Sidereal Time
11:30:38
Azimuth
Unknown
Elevation
Unknown
Doppler factor
Unknown
Orbital elements
Apogee altitude
1,702.604 km
Perigee altitude
1,394.929 km
Semi-major axis
7,926.903 km
Eccentricity
0.01941
Inclination
56.0411°
RAAN
42.1952°
Arg. of periapsis
281.9843°
True anomaly
261.20888°
Mean anomaly
263.4114°
Eccentric anomaly
262.30946°
Mean motion
3.0753 °/min
Orbital period
117.06 mins
BSTAR
0.00037618
Loading maneuver chart data...
Computing Atmospheric mass density...
Loading historical data...
Loading historical data...
Loading historical data...
Loading historical data...
Loading historical data...
Loading historical data...
Loading historical data...

Documentation

Showing up to 5 results
|